TimeCST,TemperatureF,Dew PointF,Humidity,Sea Level PressureIn,VisibilityMPH,Wind Direction,Wind SpeedMPH,Gust SpeedMPH,PrecipitationIn,Events,Conditions,WindDirDegrees,DateUTC
12:54 AM,36.0,33.1,89,30.06,9.0,South,3.5,-,N/A,,Mostly Cloudy,190,2012-11-09 06:54:00
1:54 AM,36.0,33.1,89,30.04,7.0,Calm,Calm,-,N/A,,Clear,0,2012-11-09 07:54:00
2:54 AM,34.0,32.0,92,30.05,7.0,Calm,Calm,-,N/A,,Clear,0,2012-11-09 08:54:00
3:54 AM,33.1,32.0,96,30.06,6.0,ENE,3.5,-,N/A,,Clear,60,2012-11-09 09:54:00
4:54 AM,32.0,30.9,96,30.07,5.0,ENE,3.5,-,N/A,,Clear,60,2012-11-09 10:54:00
5:54 AM,32.0,30.9,96,30.07,4.0,ENE,5.8,-,N/A,,Clear,60,2012-11-09 11:54:00
6:54 AM,32.0,30.9,96,30.10,2.5,Calm,Calm,-,N/A,,Clear,0,2012-11-09 12:54:00
7:08 AM,32.0,30.2,93,30.05,3.0,East,4.6,-,N/A,,Clear,100,2012-11-09 13:08:00
7:15 AM,32.0,30.2,93,30.06,2.5,East,3.5,-,N/A,,Clear,100,2012-11-09 13:15:00
7:37 AM,33.8,32.0,93,30.06,3.0,East,3.5,-,N/A,,Clear,90,2012-11-09 13:37:00
7:54 AM,33.1,32.0,96,30.11,3.0,East,3.5,-,N/A,,Clear,80,2012-11-09 13:54:00
8:54 AM,36.0,34.0,93,30.11,4.0,ENE,5.8,-,N/A,,Overcast,60,2012-11-09 14:54:00
9:54 AM,39.0,36.0,89,30.11,6.0,East,8.1,-,N/A,,Overcast,90,2012-11-09 15:54:00
10:54 AM,42.1,36.0,79,30.10,9.0,East,11.5,-,N/A,,Overcast,80,2012-11-09 16:54:00
11:54 AM,44.1,36.0,73,30.07,10.0,East,12.7,-,N/A,,Overcast,80,2012-11-09 17:54:00
12:54 PM,45.0,36.0,71,30.06,10.0,East,12.7,-,N/A,,Overcast,90,2012-11-09 18:54:00
1:54 PM,45.0,37.0,74,30.05,10.0,ENE,10.4,-,N/A,,Overcast,70,2012-11-09 19:54:00
2:54 PM,45.0,37.0,74,30.04,10.0,East,10.4,-,N/A,,Overcast,80,2012-11-09 20:54:00
3:54 PM,45.0,37.0,74,30.05,8.0,East,12.7,-,N/A,,Overcast,90,2012-11-09 21:54:00
4:54 PM,44.1,37.9,79,30.05,8.0,East,11.5,-,N/A,,Overcast,80,2012-11-09 22:54:00
5:31 PM,42.8,37.4,81,30.02,7.0,East,12.7,-,N/A,,Overcast,80,2012-11-09 23:31:00
5:54 PM,43.0,37.9,82,30.05,8.0,East,13.8,-,N/A,,Overcast,80,2012-11-09 23:54:00
6:22 PM,42.8,39.2,87,30.02,8.0,East,11.5,-,N/A,,Overcast,80,2012-11-10 00:22:00
6:54 PM,43.0,39.0,86,30.06,8.0,East,13.8,-,N/A,,Overcast,90,2012-11-10 00:54:00
7:54 PM,43.0,37.9,82,30.07,9.0,East,13.8,-,N/A,,Overcast,90,2012-11-10 01:54:00
8:39 PM,42.8,37.4,81,30.04,10.0,East,15.0,23.0,N/A,,Overcast,100,2012-11-10 02:39:00
8:54 PM,42.1,37.0,82,30.08,10.0,East,13.8,21.9,N/A,,Overcast,100,2012-11-10 02:54:00
9:27 PM,42.8,37.4,81,30.05,10.0,East,12.7,20.7,N/A,,Overcast,100,2012-11-10 03:27:00
9:54 PM,42.1,37.0,82,30.08,9.0,East,15.0,18.4,N/A,,Overcast,90,2012-11-10 03:54:00
10:23 PM,41.0,37.4,87,30.05,8.0,East,12.7,-,N/A,,Overcast,100,2012-11-10 04:23:00
10:54 PM,41.0,37.9,89,30.09,7.0,East,10.4,-,N/A,,Overcast,100,2012-11-10 04:54:00
11:54 PM,41.0,39.0,93,30.06,7.0,East,13.8,20.7,N/A,,Overcast,90,2012-11-10 05:54:00